Zurück zum Katalog

NOAA 16 DEB

AktivSSO
NORAD 41510·DEBRIS·🇺🇸 United States

Gestartet Sep 21, 2000 von Vandenberg Space Force Base

Loading…

Nächste Überflüge (nächste 24 Stunden)

TLE

AktuellSource: Space-Track

Epoche: Sep 13, 2026, 12:05 UTC

1 41510U 00055MJ  26256.50370706  .00002601  00000-0  10162-2 0  9991
2 41510  98.7559 350.6871 0024971 114.8608 245.5174 14.30284356542013

Verfolge NOAA 16 DEB in Echtzeit mit AllMySat

Download on the App Store